Stations météo

réclame
Mon MeteoGroup
Ueckermünde, Allemagne (10193): Température de l'air & dewpoint: 19.11.2017 02:00:00 - 25.11.2017 02:00:00 (CET)Ueckermünde, Allemagne (10193): Température de l'air 5cm & Température de l'air -5cm: 19.11.2017 02:00:00 - 25.11.2017 02:00:00 (CET)Ueckermünde, Allemagne (10193): Température de l'air -20cm & Température de l'air -100cm: 19.11.2017 02:00:00 - 25.11.2017 02:00:00 (CET)Ueckermünde, Allemagne (10193): Vitesse du vent & gusts: 19.11.2017 02:00:00 - 25.11.2017 02:00:00 (CET)Ueckermünde, Allemagne (10193): Direction du vent: 19.11.2017 02:00:00 - 25.11.2017 02:00:00 (CET)Ueckermünde, Allemagne (10193): reduced air pressure: 19.11.2017 02:00:00 - 25.11.2017 02:00:00 (CET)Ueckermünde, Allemagne (10193): visibility: 19.11.2017 02:00:00 - 25.11.2017 02:00:00 (CET)Ueckermünde, Allemagne (10193): Ensoleillement: 19.11.2017 02:00:00 - 25.11.2017 02:00:00 (CET)Ueckermünde, Allemagne (10193): Quantités de précipitations: 19.11.2017 02:00:00 - 25.11.2017 02:00:00 (CET)
Date & Time tt [°C] td [°C] tt 5cm [°C] tt -5cm [°C] tt -20cm [°C] tt -100cm [°C] ff [km/h] ff [knt] fx [km/h] fx [knt] dd ppp [hPa] vv [km] sd [min] rr [mm]
25.11.2017 02:00:00 2,7 2,7 0,4 2,3 5,3 8,4 6 4 13 7 WSW 1012,1 2,5 0 0,0
25.11.2017 01:00:00 3,6 3,6 2,0 2,5 5,5 8,4 10 6 19 10 SW 1012,3 5 0 0,0
25.11.2017 00:00:00 3,3 3,3 1,7 2,7 5,7 8,4 10 6 16 9 SW 1012,3 3,8 0 0,0
24.11.2017 23:00:00 3,9 3,9 2,4 3,1 5,8 8,4 10 5 16 9 SSW 1012,2 8 0 0,0
24.11.2017 22:00:00 4,4 4,3 2,8 3,4 6,0 8,4 11 6 16 9 SW 1011,5 9 0 0,0
24.11.2017 21:00:00 4,1 4,1 1,7 3,9 6,1 8,4 10 5 16 9 WSW 1011,1 10 0 0,0
24.11.2017 20:00:00 5,0 5,0 4,0 4,6 6,3 8,4 10 6 15 8 SSW 1010,8 14 0 0,0
24.11.2017 19:00:00 5,0 5,0 3,7 4,8 6,3 8,4 10 6 16 8 SSW 1010,4 7 0 0,0
24.11.2017 18:00:00 5,8 5,8 3,6 5,9 6,3 8,4 7 4 12 7 SW 1009,7 9 0 0,0
24.11.2017 17:00:00 6,2 6,1 5,8 6,0 6,3 8,4 6 4 9 5 WSW 1009,2 12 0 0,0
24.11.2017 16:00:00 6,4 6,2 6,1 6,3 6,2 8,4 8 4 13 7 W 1008,5 22 0 0,0
24.11.2017 15:00:00 6,5 6,3 6,5 6,3 6,2 8,4 6 3 10 6 WNW 1007,5 25 0 0,1
24.11.2017 14:00:00 6,1 6,0 6,0 6,0 6,1 8,4 5 3 16 8 NW 1007,2 4,7 0 0,2
24.11.2017 13:00:00 6,2 6,2 6,1 6,0 6,0 8,4 8 5 16 8 N 1006,7 4,9 0 0,8
24.11.2017 12:00:00 6,3 6,1 6,0 5,9 5,9 8,4 9 5 26 14 N 1006,5 3,5 0 2,3
24.11.2017 11:00:00 7,8 6,6 7,0 5,8 5,8 8,4 4 2 13 7 S 1006,1 7 0 0,4
24.11.2017 10:00:00 7,6 5,3 6,5 5,4 5,7 8,4 7 4 19 11 SSE 1007,0 12 0 0,1
24.11.2017 09:00:00 7,1 5,2 5,9 4,8 5,7 8,4 14 8 18 10 SSE 1008,4 19 0 0,1
24.11.2017 08:00:00 5,9 4,8 5,2 4,1 5,8 8,4 9 5 18 10 SSW 1009,3 38 0 0,0
24.11.2017 07:00:00 5,0 4,2 3,2 3,6 5,9 8,4 11 6 17 9 S 1009,3 14 0 0,0
24.11.2017 06:00:00 5,5 5,1 3,8 3,8 6,1 8,4 12 7 18 10 S 1009,3 22 0 0,0
24.11.2017 05:00:00 5,8 4,6 3,8 3,9 6,2 8,4 13 7 18 10 S 1009,8 33 0 0,0
24.11.2017 04:00:00 5,6 2,9 2,1 3,8 6,4 8,4 11 6 13 7 S 1009,3 51 0 0,0
24.11.2017 03:00:00 6,1 2,5 0,5 4,7 6,5 8,4 8 4 14 8 SW 1009,6 54 0 0,0
24.11.2017 02:00:00 6,9 5,6 4,1 5,8 6,6 8,4 9 5 19 11 WSW 1009,3 27 0 0,0
24.11.2017 01:00:00 10,0 7,5 8,3 6,5 6,5 8,4 10 5 16 9 SSW 1008,8 35 0 0,0
24.11.2017 00:00:00 9,9 7,2 8,8 6,2 6,5 8,4 12 7 20 11 SSW 1007,9 43 0 0,0
23.11.2017 23:00:00 9,9 6,9 8,5 6,1 6,5 8,4 14 8 22 12 SSW 1007,2 46 0 0,0
23.11.2017 22:00:00 10,0 6,7 8,6 6,1 6,5 8,4 16 9 25 14 SSW 1006,4 61 0 0,0
23.11.2017 21:00:00 10,1 6,4 8,3 6,4 6,5 8,4 19 10 28 15 S 1005,7 55 0 0,0
23.11.2017 20:00:00 10,8 6,3 8,9 6,5 6,5 8,4 16 8 31 17 SSW 1005,2 54 0 0,0
23.11.2017 19:00:00 10,8 6,1 9,3 6,8 6,4 8,4 19 10 31 17 SSW 1004,9 65 0 0,0
23.11.2017 18:00:00 11,0 5,9 9,7 6,6 6,4 8,4 19 11 40 21 SSW 1004,3 63 0 0,0
23.11.2017 17:00:00 10,5 5,7 9,0 6,6 6,3 8,4 21 12 36 19 SSW 1003,7 60 0 0,0
23.11.2017 16:00:00 10,5 5,5 9,3 6,8 6,2 8,4 23 12 37 20 SSW 1003,3 50 0 0,0
23.11.2017 15:00:00 10,0 5,5 9,0 6,8 6,0 8,4 25 14 42 23 SSW 1002,9 61 0 0,0
23.11.2017 14:00:00 10,0 5,2 9,1 6,7 5,9 8,4 23 12 36 19 S 1002,8 59 0 0,0
23.11.2017 13:00:00 9,1 5,0 8,3 6,4 5,7 8,4 22 12 36 19 S 1002,8 51 0 0,0
23.11.2017 12:00:00 8,3 4,8 7,5 6,0 5,6 8,4 23 13 42 23 S 1003,4 43 0 0,0
23.11.2017 11:00:00 7,2 4,4 6,5 5,3 5,5 8,4 24 13 41 22 S 1004,0 42 4 0,0
23.11.2017 10:00:00 6,3 3,9 5,7 4,5 5,5 8,4 24 13 38 21 S 1004,0 36 2 0,0
23.11.2017 09:00:00 5,3 3,5 4,4 3,7 5,6 8,4 27 14 41 22 S 1004,1 30 16 0,0
23.11.2017 08:00:00 4,6 3,2 3,4 3,3 5,7 8,4 22 12 35 19 S 1004,5 22 0 0,0
23.11.2017 07:00:00 4,4 3,3 3,1 3,3 5,8 8,4 19 11 30 16 S 1004,8 18 0 0,0
23.11.2017 06:00:00 4,5 3,5 3,1 3,5 6,0 8,4 18 10 27 15 S 1005,0 17 0 0,0
23.11.2017 05:00:00 4,6 3,8 3,2 3,8 6,1 8,4 18 10 27 15 S 1005,1 13 0 0,0
23.11.2017 04:00:00 4,9 4,1 3,7 4,2 6,3 8,4 19 10 34 18 S 1005,3 12 0 0,0
23.11.2017 03:00:00 5,1 4,4 3,7 4,4 6,5 8,4 18 10 26 14 S 1005,5 12 0 0,0
23.11.2017 02:00:00 5,3 4,7 4,0 4,8 6,6 8,4 18 10 28 15 S 1005,8 10 0 0,0
23.11.2017 01:00:00 6,0 5,2 4,8 5,2 6,7 8,4 21 12 31 17 S 1006,2 13 0 0,0
23.11.2017 00:00:00 6,6 5,6 5,3 5,7 6,8 8,4 22 12 32 17 S 1006,2 16 0 0,0
22.11.2017 23:00:00 7,2 6,2 5,9 6,1 6,9 8,4 22 12 30 16 S 1006,4 17 0 0,0
22.11.2017 22:00:00 7,8 7,0 6,5 6,6 7,0 8,4 20 11 29 15 S 1006,5 15 0 0,0
22.11.2017 21:00:00 8,6 7,6 7,4 7,5 6,9 8,4 16 9 27 15 SSW 1006,8 16 0 0,0
22.11.2017 20:00:00 9,2 8,5 8,7 7,8 6,9 8,4 15 8 25 14 SSW 1006,9 13 0 0,0
22.11.2017 19:00:00 9,2 8,7 8,7 7,8 6,8 8,4 16 9 24 13 SSW 1006,8 11 0 0,0
22.11.2017 18:00:00 9,3 9,0 8,8 7,9 6,7 8,4 15 8 25 14 SSW 1006,5 11 0 0,1
22.11.2017 17:00:00 9,5 9,3 8,9 7,9 6,6 8,4 15 8 25 14 SSW 1006,5 6 0 0,6
22.11.2017 16:00:00 9,8 9,1 9,1 7,9 6,4 8,4 18 10 28 15 SW 1006,4 9 0 0,0
22.11.2017 15:00:00 9,7 9,0 9,2 7,9 6,2 8,4 18 10 26 14 SW 1006,1 12 0 0,0
22.11.2017 14:00:00 9,6 8,9 9,3 7,8 6,0 8,4 19 11 27 15 SW 1005,8 11 0 0,0
22.11.2017 13:00:00 9,3 8,9 9,0 7,6 5,8 8,4 16 8 29 16 SW 1005,7 12 0 0,1
22.11.2017 12:00:00 9,0 8,9 8,8 7,2 5,6 8,4 17 9 26 14 SSW 1005,5 3,8 0 1,0
22.11.2017 11:00:00 8,7 8,7 8,4 6,7 5,4 8,4 14 7 22 12 SSW 1005,5 4,5 0 1,1
22.11.2017 10:00:00 7,6 7,6 7,4 5,8 5,3 8,5 16 9 23 12 S 1005,0 4,0 0 0,0
22.11.2017 09:00:00 6,4 6,4 6,2 5,2 5,2 8,5 16 9 27 14 S 1004,9 7 0 0,0
22.11.2017 08:00:00 5,7 5,7 5,5 4,8 5,2 8,5 13 7 23 12 S 1004,9 9 0 0,1
22.11.2017 07:00:00 5,1 5,1 4,9 4,6 5,1 8,5 16 9 27 14 S 1004,9 10 0 0,8
22.11.2017 06:00:00 4,5 4,5 4,3 4,4 5,1 8,5 22 12 32 18 S 1005,0 2,3 0 1,8
22.11.2017 05:00:00 4,3 4,1 4,0 4,3 5,1 8,5 20 11 33 18 S 1005,7 6 0 1,6
22.11.2017 04:00:00 4,1 3,9 3,9 4,2 5,1 8,5 18 10 28 15 SSE 1006,2 4,0 0 0,4
22.11.2017 03:00:00 4,1 3,6 3,8 4,1 5,1 8,5 15 8 25 13 SSE 1007,2 6 0 0,0
22.11.2017 02:00:00 3,8 3,4 3,5 4,1 5,1 8,5 13 7 25 13 SSE 1008,0 6 0 0,0
22.11.2017 01:00:00 3,7 3,2 3,4 4,1 5,1 8,5 10 5 18 10 SE 1009,0 6 0 0,1
22.11.2017 00:00:00 3,7 3,2 3,4 4,1 5,1 8,5 8 4 16 8 SE 1009,5 4,9 0 0,0
21.11.2017 23:00:00 3,8 3,5 3,6 4,1 5,1 8,5 7 4 13 7 ESE 1009,9 4,6 0 0,0
21.11.2017 22:00:00 3,8 3,5 3,5 4,1 5,1 8,6 5 3 10 5 E 1010,4 5 0 0,1
21.11.2017 21:00:00 3,9 3,3 3,5 4,1 5,1 8,6 4 2 12 7 ESE 1010,5 8 0 0,0
21.11.2017 20:00:00 3,9 3,1 3,7 4,3 5,1 8,6 5 3 9 5 E 1010,5 9 0 0,0
21.11.2017 19:00:00 4,0 3,0 3,7 4,3 5,1 8,6 5 3 10 5 SE 1010,8 10 0 0,0
21.11.2017 18:00:00 4,1 3,0 3,8 4,4 5,1 8,6 5 3 12 6 SSE 1010,8 11 0 0,0
21.11.2017 17:00:00 4,1 3,2 3,8 4,5 5,0 8,6 4 2 8 5 ESE 1010,5 13 0 0,0
21.11.2017 16:00:00 4,1 3,0 3,9 4,7 5,0 8,6 5 3 11 6 SSE 1010,6 15 0 0,0
21.11.2017 15:00:00 4,3 3,1 4,3 5,0 4,9 8,6 8 4 14 7 SSE 1010,7 17 0 0,0
21.11.2017 14:00:00 4,2 3,2 4,6 5,2 4,7 8,6 8 5 15 8 S 1010,5 12 0 0,0
21.11.2017 13:00:00 4,1 3,2 4,7 5,0 4,5 8,7 5 3 12 6 S 1011,3 9 0 0,0
21.11.2017 12:00:00 3,9 3,0 4,4 4,7 4,4 8,7 5 3 16 9 S 1011,4 8 0 0,0
21.11.2017 11:00:00 3,8 3,3 4,6 4,3 4,2 8,7 9 5 15 8 S 1011,2 8 0 0,0
21.11.2017 10:00:00 3,2 3,1 3,7 3,4 4,1 8,7 7 4 16 8 S 1011,3 5 0 0,0
21.11.2017 09:00:00 2,7 2,7 2,6 2,9 4,1 8,7 8 4 11 6 S 1011,0 2,8 0 0,0
21.11.2017 08:00:00 2,2 2,2 1,7 2,5 4,1 8,7 8 4 13 7 SSE 1010,7 2,3 0 0,0
21.11.2017 07:00:00 2,4 2,4 2,1 2,6 4,0 8,7 3 2 8 4 ESE 1010,5 3,9 0 0,0
21.11.2017 06:00:00 2,4 2,4 2,1 2,4 4,0 8,7 4 2 10 6 ESE 1010,6 4,3 0 0,0
21.11.2017 05:00:00 2,1 2,1 1,8 2,2 4,0 8,7 7 4 13 7 S 1010,6 6 0 0,1
21.11.2017 04:00:00 2,0 2,0 1,6 2,1 4,0 8,7 7 4 10 6 S 1010,9 7 0 0,0
21.11.2017 03:00:00 1,7 1,7 1,2 1,8 4,1 8,8 8 4 9 5 S 1011,0 9 0 0,0
21.11.2017 02:00:00 1,2 1,2 -0,2 1,5 4,2 8,8 6 3 10 5 S 1011,1 7 0 0,0
21.11.2017 01:00:00 1,3 1,3 0,5 1,7 4,2 8,8 8 5 11 6 S 1011,3 7 0 0,0
21.11.2017 00:00:00 1,3 1,3 0,5 1,6 4,3 8,8 10 5 11 6 S 1011,5 7 0 0,0
20.11.2017 23:00:00 1,3 1,3 0,1 1,6 4,4 8,8 7 4 10 5 SSW 1011,5 9 0 0,0
20.11.2017 22:00:00 1,7 1,7 -1,1 1,8 4,6 8,8 4 2 8 4 SSW 1012,1 7 0 0,0
20.11.2017 21:00:00 1,8 1,8 -0,4 2,2 4,7 8,8 6 3 9 5 SSW 1012,0 21 0 0,0
20.11.2017 20:00:00 1,9 1,6 0,3 2,6 4,7 8,8 6 4 9 5 SSW 1012,1 16 0 0,0
20.11.2017 19:00:00 2,8 2,2 1,7 2,9 4,8 8,8 5 3 7 4 S 1012,2 29 0 0,0
20.11.2017 18:00:00 3,1 2,2 0,9 2,9 4,9 8,9 5 3 19 10 W 1012,1 70 0 0,0
20.11.2017 17:00:00 2,8 1,8 1,0 3,0 4,9 8,9 9 5 19 10 W 1012,1 69 0 0,0
20.11.2017 16:00:00 3,8 2,6 2,4 4,0 4,9 8,9 11 6 21 12 WSW 1011,9 64 0 0,0
20.11.2017 15:00:00 4,6 3,2 3,8 4,8 4,7 8,9 16 8 31 17 WSW 1011,9 63 0 0,0
20.11.2017 14:00:00 5,0 3,3 5,0 5,1 4,5 8,9 18 10 28 15 W 1011,9 41 20 0,0
20.11.2017 13:00:00 4,8 3,8 5,2 4,8 4,3 8,9 16 9 24 13 WSW 1011,9 46 23 0,0
20.11.2017 12:00:00 3,8 3,0 4,2 3,7 4,1 8,9 15 8 23 12 W 1011,9 56 15 0,1
20.11.2017 11:00:00 3,4 2,9 3,7 3,2 4,0 8,9 14 7 24 13 WSW 1011,9 12 0 0,1
20.11.2017 10:00:00 2,8 2,3 2,7 1,7 4,1 8,9 16 8 23 13 W 1011,7 42 0 0,4
20.11.2017 09:00:00 1,4 1,4 0,8 1,1 4,2 8,9 6 3 17 9 WSW 1011,6 3,6 0 1,6
20.11.2017 08:00:00 0,9 0,0 0,3 1,2 4,3 8,9 7 4 17 9 SW 1011,2 63 0 0,0
20.11.2017 07:00:00 0,4 -0,6 -0,9 1,2 4,4 8,9 10 5 21 11 WSW 1010,9 70 0 0,0
20.11.2017 06:00:00 0,4 -0,5 -0,4 1,2 4,5 9,0 13 7 21 11 WSW 1010,8 63 0 0,0
20.11.2017 05:00:00 0,8 -0,3 -0,4 1,2 4,7 9,0 12 6 22 12 WSW 1010,8 59 0 0,0
20.11.2017 04:00:00 1,4 -0,6 -0,3 1,6 4,8 9,0 14 7 25 13 WSW 1010,5 70 0 0,0
20.11.2017 03:00:00 2,3 -0,5 1,1 1,6 5,0 9,0 16 9 28 15 W 1010,1 70 0 0,0
20.11.2017 02:00:00 2,2 -0,5 0,5 1,9 5,2 9,0 16 9 29 16 WNW 1009,8 70 0 0,0
20.11.2017 01:00:00 2,4 0,2 0,8 2,6 5,3 9,0 18 10 40 21 WNW 1009,2 70 0 0,0
20.11.2017 00:00:00 3,9 1,4 2,4 3,6 5,3 9,0 26 14 44 24 WNW 1008,3 70 0 0,0
19.11.2017 23:00:00 4,2 3,2 3,6 3,9 5,3 9,0 21 11 44 24 NW 1007,5 29 0 0,1
19.11.2017 22:00:00 3,6 2,7 3,1 3,7 5,4 9,0 24 13 43 23 WNW 1006,3 8 0 0,9
19.11.2017 21:00:00 3,6 2,3 3,1 3,6 5,4 9,0 24 13 47 25 WNW 1004,9 52 0 0,3
19.11.2017 20:00:00 3,4 1,8 2,7 3,6 5,5 9,0 31 17 60 32 WNW 1003,6 13 0 0,2
19.11.2017 19:00:00 4,2 0,7 3,1 3,7 5,6 9,0 30 16 51 28 WNW 1002,8 45 0 0,0
19.11.2017 18:00:00 4,5 0,6 3,7 3,7 5,7 9,1 23 12 48 26 W 1002,2 70 0 0,0
19.11.2017 17:00:00 4,4 0,7 3,7 3,8 5,7 9,1 23 12 52 28 W 1001,9 70 0 0,1
19.11.2017 16:00:00 5,0 0,5 3,8 4,7 5,7 9,1 30 16 50 27 W 1001,5 70 2 0,0
19.11.2017 15:00:00 5,5 1,6 4,5 5,5 5,6 9,1 27 15 49 26 W 1001,2 45 16 0,0
19.11.2017 14:00:00 5,4 2,1 4,8 5,7 5,5 9,1 29 16 47 26 W 1000,5 70 6 0,0
19.11.2017 13:00:00 5,5 4,3 5,3 5,1 5,4 9,1 23 12 44 24 W 1000,2 51 1 0,6
19.11.2017 12:00:00 5,1 4,0 4,5 4,9 5,3 9,1 29 16 46 25 WSW 1000,0 8 0 0,5
19.11.2017 11:00:00 5,1 3,7 4,4 4,6 5,3 9,1 29 16 48 26 WSW 1000,0 44 0 0,2
19.11.2017 10:00:00 4,2 3,4 3,8 4,1 5,2 9,1 17 9 50 27 WSW 1000,2 21 0 2,1
19.11.2017 09:00:00 4,9 2,6 4,5 3,9 5,2 9,1 31 17 46 25 SW 1000,6 46 0 0,0
19.11.2017 08:00:00 4,4 2,3 3,7 3,5 5,2 9,1 30 16 48 26 SW 1000,8 41 0 0,0
19.11.2017 07:00:00 4,1 2,1 3,2 3,5 5,2 9,1 28 15 48 26 SW 1001,2 59 0 0,0
19.11.2017 06:00:00 4,3 2,1 3,4 3,4 5,2 9,1 29 15 50 27 WSW 1001,8 70 0 0,0
19.11.2017 05:00:00 4,3 2,5 3,8 3,6 5,2 9,1 27 15 48 26 WSW 1002,6 63 0 0,1
19.11.2017 04:00:00 4,5 2,4 3,9 3,4 5,3 9,1 28 15 45 24 WSW 1003,0 70 0 0,0
19.11.2017 03:00:00 4,4 2,4 3,8 3,4 5,3 9,1 26 14 41 22 WSW 1003,9 70 0 0,0
19.11.2017 02:00:00 4,3 2,4 3,4 3,3 5,3 9,2 25 13 42 23 WSW 1004,2 47 0 0,0

tt = Température de l'air
td = dewpoint
tt 5cm = Température de l'air 5cm
tt -5cm = Température de l'air -5cm
tt -20cm = Température de l'air -20cm
tt -100cm = Température de l'air -100cm
ff = Vitesse du vent
fx = gusts
dd = Direction du vent
ppp = reduced air pressure
vv = visibility
sd = Ensoleillement
rr = Quantités de précipitations

stations d'obs. à proximité